This is the latest recevied weather packets stored in our database for station/object LZ1ASO-10. If no packets are shown the sender has not sent any weather packets the latest 1 day(s).
| Time | Temp. | Humidity | Pressure | Rain* | Wind** | Luminosity | Snow |
|---|---|---|---|---|---|---|---|
| 1778047978 | 17.78° C | 41% | 1017.9 hPa | - | - | - | - |
| 1778047078 | 17.22° C | 41% | 1017.8 hPa | - | - | - | - |
| 1778046178 | 16.67° C | 42% | 1017.7 hPa | - | - | - | - |
| 1778045278 | 16.67° C | 42% | 1017.7 hPa | - | - | - | - |
| 1778044378 | 16.11° C | 43% | 1017.6 hPa | - | - | - | - |
| 1778043477 | 16.11° C | 44% | 1017.4 hPa | - | - | - | - |
| 1778041678 | 15.56° C | 42% | 1017.2 hPa | - | - | - | - |
| 1778040777 | 15.56° C | 43% | 1016.9 hPa | - | - | - | - |
| 1778039877 | 15.56° C | 42% | 1016.8 hPa | - | - | - | - |
| 1778038977 | 15° C | 42% | 1016.7 hPa | - | - | - | - |
| 1778038077 | 15° C | 42% | 1016.5 hPa | - | - | - | - |
| 1778037177 | 15.56° C | 42% | 1016.4 hPa | - | - | - | - |
| 1778036276 | 15.56° C | 42% | 1016.3 hPa | - | - | - | - |
| 1778035376 | 15.56° C | 42% | 1016.1 hPa | - | - | - | - |
| 1778034476 | 15.56° C | 42% | 1016.1 hPa | - | - | - | - |
| 1778033576 | 15.56° C | 42% | 1016.1 hPa | - | - | - | - |
| 1778032676 | 15.56° C | 42% | 1016 hPa | - | - | - | - |
| 1778031776 | 15.56° C | 42% | 1016 hPa | - | - | - | - |
| 1778030876 | 16.11° C | 42% | 1016 hPa | - | - | - | - |
| 1778029976 | 16.11° C | 42% | 1016.1 hPa | - | - | - | - |
| 1778029075 | 16.11° C | 42% | 1016.1 hPa | - | - | - | - |
| 1778028175 | 16.11° C | 42% | 1016.1 hPa | - | - | - | - |
| 1778026375 | 16.11° C | 42% | 1016.2 hPa | - | - | - | - |
| 1778021875 | 16.67° C | 43% | 1016.7 hPa | - | - | - | - |
| 1778020975 | 17.22° C | 43% | 1016.8 hPa | - | - | - | - |
* Rain since midnight (hover to see other rain measurements)
** Current wind speed in m/s (hover to see current wind gust speed)